Regional Weather Roundup
Issued by NWS

Home | Current Version | Previous Version | Graphics & Text | Print | Product List | Glossary On
Versions: 1 2 3 4 5 6 7 8 9 10 11 12 13 14 15 16 17 18 19 20 21 22 23 24 25 26 27
000
ASUS45 KTFX 301710
RWRMT
MONTANA REGIONAL WEATHER ROUNDUP
NATIONAL WEATHER SERVICE GREAT FALLS MT
1100 AM MDT FRI SEP 30 2016

NOTE: "FAIR" INDICATES FEW OR NO CLOUDS BELOW 12000 FEET WITH NO
SIGNIFICANT WEATHER AND/OR OBSTRUCTIONS TO VISIBILITY.

MTZ001>007-043-301800-
WEST OF THE DIVIDE

CITY           SKY/WX    TMP DP  RH WIND       PRES   REMARKS
KALISPELL      MOSUNNY   64  51  62 NE7       30.03S
MISSOULA       SUNNY     62  46  55 CALM      30.05F
BUTTE          CLOUDY    59  44  57 N3        30.18S
MULLAN PASS    SUNNY     58  43  57 VRB6      30.11S
ANACONDA         N/A     64  45  48 SE15      30.13F
DEER LODGE       N/A     63  45  51 CALM      30.14F
EUREKA           N/A     61  54  77 CALM      30.02
HAMILTON         N/A     72  45  37 S8        30.05F
LIBBY            N/A     59  54  82 CALM      30.02F
PLAINS           N/A     62  49  62 CALM      30.03F
RONAN            N/A     66  50  56 N5        30.08F
THOMPSON FALLS   N/A     63  51  64 CALM      30.05F
$$

MTZ008-052>055-301800-
SOUTHWEST MONTANA

CITY           SKY/WX    TMP DP  RH WIND       PRES   REMARKS
BOZEMAN        SUNNY     63  48  58 CALM      30.16F
DILLON           N/A     61  44  53 S3        30.19R
W YELLOWSTONE  MOSUNNY   54  43  66 CALM      30.31F
ENNIS          SUNNY     66  43  42 S13       30.24S
THREE FORKS      N/A     65  26  23 CALM      30.12F
TWIN BRIDGES     N/A     62  46  55 SW8       30.14F
$$

MTZ009-010-012-014-046-048-049-054-301800-
EAST SLOPES AND CENTRAL MONTANA

CITY           SKY/WX    TMP DP  RH WIND       PRES   REMARKS
CUT BANK       CLOUDY    55  49  80 SE5       30.05S
GREAT FALLS    CLOUDY    67  47  48 W8        30.04R
MALMSTROM AFB  CLOUDY    67  50  53 N9        30.05R
HELENA         CLOUDY    64  46  52 N5        30.10F
AUGUSTA        PTSUNNY   64  46  51 S5        30.07S
BOWMANS CRNR     N/A     64  45  50 S17       30.06S
CHOTEAU          N/A     63  48  59 CALM      30.08R
CONRAD           N/A     59  57  92 NW2       30.07S
FAIRFIELD      PTSUNNY   64  46  52 S6        30.04F
POWER          PTSUNNY   67  47  48 SW8       30.04F
RAYNESFORD       N/A     73  41  31 SW10G16   30.06S
$$

MTZ011-013-016-021-045-047-050-051-301800-
NORTH CENTRAL MONTANA

CITY           SKY/WX    TMP DP  RH WIND       PRES   REMARKS
HAVRE          SUNNY     62  52  69 W13       30.02S
LEWISTOWN      SUNNY     70  47  43 CALM      30.06F
N BAR RANCH    PTSUNNY   73  45  35 NW10      30.09S
CHINOOK          N/A     64  54  68 W10       29.99S
DENTON           N/A     64  51  63 W1        30.02S
GEYSER         PTSUNNY   64  46  51 S5        30.07S
GRASS RANGE      N/A     69  48  46 W13       30.01S
JUDITH GAP       N/A     71  46  41 W3G13     30.08F
ROY              N/A     73  51  45 MISG      30.01S
STANFORD         N/A     71  49  44 S3        30.07S
WINIFRED         N/A     68  51  54 MISG      30.04S
$$

MTZ017>020-022>027-061-062-301800-
NORTHEAST MONTANA

CITY           SKY/WX    TMP DP  RH WIND       PRES   REMARKS
GLASGOW        CLOUDY    67  48  50 VRB3      29.96F
JORDAN           N/A     70  55  59 W5        29.97S
SIDNEY         CLOUDY    62  51  67 SE5       30.00S
WOLF POINT     MOSUNNY   67  50  54 VRB3      29.97F
PLENTYWOOD       N/A     61  50  67 E3        30.01R
POPLAR           N/A     66  50  55 E6        29.98S
SCOBEY           N/A     65  45  48 CALM      29.98S
$$

MTZ028>42-056>058-301800-
SOUTHCENTRAL AND SOUTHEAST MONTANA

CITY           SKY/WX    TMP DP  RH WIND       PRES   REMARKS
BAKER          CLOUDY    63  48  58 SE14      30.04F
BILLINGS       MOSUNNY   70  50  49 SW14      30.06S
LIVINGSTON     SUNNY     70  43  37 SW20G30   30.13R
MILES CITY     SUNNY     73  53  49 SW6       29.99F
BIG TIMBER     SUNNY     70  45  40 W20G28    30.13S
EKALAKA          N/A     69  49  48 SE5       30.03S
FORSYTH          N/A     73  52  46 W7        29.99F
HARLOWTON        N/A     72  42  34 W26G35    30.08S
LAUREL           N/A     71  51  49 S3        30.05S
ROUNDUP          N/A     70  47  43 SW6       29.96S
$$

REGIONAL REPORTS...DAKOTAS

CITY           SKY/WX    TMP DP  RH WIND       PRES   REMARKS
WILLISTON      CLOUDY    62  48  60 SE10      30.02F
MINOT          CLOUDY    61  48  62 SE13      30.09S
DICKINSON      CLOUDY    58  44  60 S15       30.06R
BEACH            N/A     61  48  63 SE14      30.07R
CROSBY         CLOUDY    55  55 100 E8        30.06F
WATFORD CITY   PTSUNNY   55  50  82 SE21G26   30.02F
BISMARCK       LGT RAIN  64  48  56 S20       30.15F
GRAND FORKS    PTSUNNY   63  51  65 S15       30.29F
FARGO          SUNNY     66  51  58 SE14      30.30F
BUFFALO SD       N/A     63  45  51 SE15      30.00F
RAPID CITY     PTSUNNY   62  45  53 S16       30.08S
$$

REGIONAL REPORTS...WYOMING/IDAHO/WASHINGTON

CITY           SKY/WX    TMP DP  RH WIND       PRES   REMARKS
GILLETTE       SUNNY     72  50  45 W12       30.08F
SHERIDAN       SUNNY     72  48  42 CALM      30.08S
BUFFALO WY     SUNNY     72  44  36 VRB3      30.14R
CODY           SUNNY     70  43  37 W10       30.16F
YELLOWSTONE LA   N/A     48  44  86 VRB3      30.38F
IDAHO FALLS    MOSUNNY   63  50  62 VRB5      30.22S
SALMON         SUNNY     61  45  55 CALM      30.15F
BOISE          SUNNY     77  46  33 SE16      30.05F
SPOKANE        PTSUNNY   62  45  53 S5        29.99S
$$

REGIONAL REPORTS...ALBERTA

CITY           SKY/WX    TMP DP  RH WIND       PRES   REMARKS
EDMONTON       CLOUDY    48  46  93 NE12      30.05F
CALGARY        CLOUDY    50  45  81 SE5       30.02R
LETHBRIDGE     MOSUNNY   61  50  67 SW6       30.00F
MEDICINE HAT   MOSUNNY   57  50  77 SE5       30.01F
WATERTON GATE    N/A     63  48  59 S12G17      N/A
MILK RIVER       N/A     59  52  77 W3          N/A
ONEFOUR          N/A     63  50  63 NW13        N/A
$$

REGIONAL REPORTS...SASKATCHEWAN

CITY           SKY/WX    TMP DP  RH WIND       PRES   REMARKS
SWIFT CURRENT  SUNNY     63  50  63 NW5       29.97S
REGINA         PTSUNNY   63  48  59 SE15      30.00F
SASKATOON      MOSUNNY   59  48  67 CALM      30.00S
CYPRESS HILLS    N/A     66  48  52 W7          N/A
VAL MARIE        N/A     66  48  52 S3          N/A
ROCKGLEN         N/A     70  48  46 S7          N/A
$$




USA.gov is the U.S. government's official web portal to all federal, state and local government web resources and services.